Regional Weather Roundup
Issued by NWS Albany, NY

Home | Current Version | Previous Version | Text Only | Print | Product List | Glossary On
Versions: 1 2 3 4 5 6 7 8 9 10 11 12 13 14 15 16 17 18 19 20 21 22 23 24 25 26 27
000
ASUS41 KALY 170910
RWRALY

NEW YORK STATE HOURLY WEATHER ROUNDUP
NATIONAL WEATHER SERVICE ALBANY NY
400 AM EST TUE JAN 17 2017

NOTE: "FAIR" INDICATES FEW OR NO CLOUDS BELOW 12,000 FEET WITH NO
SIGNIFICANT WEATHER AND/OR NO OBSTRUCTIONS TO VISIBILITY.

NYZ032-033-038>043-046>054-057>066-NYZ062>081-082-084-171000-
EAST


CITY           SKY/WX    TMP DP  RH WIND       PRES   REMARKS
ALBANY         CLOUDY    21  17  84 CALM      30.23F
GLENS FALLS    CLOUDY    16  11  80 CALM      30.23F
POUGHKEEPSIE   CLOUDY    33  26  75 CALM      30.21F
NEWBURGH       CLOUDY    34  28  80 W6        30.22F WCI  29
MONTGOMERY     CLOUDY    35  27  72 SW5       30.20F WCI  31
WHITE PLAINS   CLOUDY    36  25  64 W3        30.20F
ISLIP          CLOUDY    38  28  67 W7        30.22F WCI  33
NEW YORK CITY  CLOUDY    41  27  57 SW6       30.23F
CENTRAL PARK   CLOUDY    40  27  59 W6        30.25F
$$

NYZ005>009-017-018-044>046-055-056-171000-
CENTRAL


CITY           SKY/WX    TMP DP  RH WIND       PRES   REMARKS
FULTON         CLOUDY    27  20  75 E3        30.21S
SYRACUSE       CLOUDY    27  22  81 CALM      30.20F
ROME           CLOUDY    19  17  92 CALM      30.23F
ELMIRA         CLOUDY    32  27  81 CALM      30.18F
BINGHAMTON     CLOUDY    30  25  81 CALM      30.15F
MONTICELLO     CLOUDY    30  27  86 NW5       30.19F WCI  25
$$

NYZ026>034-041>043-087-171000-
NORTH


CITY           SKY/WX    TMP DP  RH WIND       PRES   REMARKS
WATERTOWN      CLOUDY    20  19  96 E3        30.22F
FORT DRUM      NOT AVBL
OGDENSBURG     FAIR      20  19  96 CALM      30.23R FOG
MASSENA        CLEAR     20  17  88 CALM      30.24F
SARANAC LAKE   CLOUDY     8   3  80 CALM      30.15F
PLATTSBURGH    CLEAR     19  14  81 CALM      30.22F
$$

NYZ001>004-010>016-019>021-085-171000-
WEST


CITY           SKY/WX    TMP DP  RH WIND       PRES   REMARKS
NIAGARA FALLS  CLOUDY    34  28  79 E7        30.13F WCI  28
BUFFALO        LGT RAIN  34  29  82 E8        30.12F WCI  27
DUNKIRK        MIX PCPN  36  33  89 E7        30.10F WCI  30
JAMESTOWN      CLOUDY    36  30  80 SE5       30.06F WCI  32
WELLSVILLE     CLOUDY    36  28  73 SE7       30.12F WCI  30
ROCHESTER      FLURRIES  34  28  79 CALM      30.18F
PENN YAN       CLOUDY    35  26  69 CALM      30.17F
$$

             KEY
       WCI = WIND CHILL INDEX
       VSB = VISIBILITY
       HX  = HEAT INDEX
$$




USA.gov is the U.S. government's official web portal to all federal, state and local government web resources and services.